Home   Weather   Saint-Georges   Past weeks

Flag for Canada Past Weather in Saint-Georges, Quebec, Canada — Yesterday and Last 2 Weeks

Now
37 °F

Chilly.


Feels Like: 37 °F
Forecast: 32 / 59 °F
Wind: 2 mph from Southwest

Location: Beauceville

Current Time: Sep 26, 2016 at 1:31:41 AM

Latest Report: Sep 26, 2016 at 12:00 AM


Visibility: N/A

Pressure: 30.16 "Hg

Humidity: 92%

Dew Point: 35 °F

Location of Saint-GeorgesLocation

Past Weather in Saint-Georges — Graph

°F

Saint-Georges Temperature Yesterday

Maximum temperature yesterday: 53 °F (at 3:00 PM)
Minimum temperature yesterday: 38 °F (at 5:00 AM)
Average temperature yesterday: 45 °F

High & Low Weather Summary for the Past Weeks

 TemperatureHumidityPressure
High76 °F (Sep 13, 4:00 PM)100% (Sep 11, 8:00 AM)30.33 "Hg (Sep 11, 8:00 AM)
Low33 °F (Sep 24, 4:00 AM)28% (Sep 21, 2:00 PM)29.65 "Hg (Sep 11, 8:00 AM)
Average56 °F78%30.07 "Hg
* Reported Sep 11 12:00 AM — Sep 26 12:00 AM, Saint-Georges, Weather by CustomWeather, © 2016

Note: Actual official high and low records may vary slightly from our data, if they occured in-between our weather recording intervals... More about our weather records

Advertising

Saint-Georges Weather History for the Previous 24 Hours

Scroll right to see more
 ConditionsComfort  
Time TempWeatherWind HumidityBarometerVisibility
12:00 AM
Mon, Sep 26
37 °FChilly.2 mph92%30.16 "HgN/A
11:00 PM
Sun, Sep 25
38 °FChilly.No wind90%30.17 "HgN/A
10:00 PM40 °FQuite cool.No wind86%30.17 "HgN/A
9:00 PM41 °FQuite cool.3 mph81%30.17 "HgN/A
8:00 PM44 °FQuite cool.2 mph75%30.16 "HgN/A
7:00 PM48 °FCool.5 mph64%30.14 "HgN/A
6:00 PM50 °FCool.5 mph63%30.12 "HgN/A
5:00 PM52 °FCool.5 mph58%30.10 "HgN/A
4:00 PM53 °FCool.5 mph58%30.09 "HgN/A
3:00 PM53 °FCool.6 mph53%30.09 "HgN/A
2:00 PM52 °FCool.6 mph61%30.09 "HgN/A
1:00 PM50 °FCool.5 mph63%30.09 "HgN/A
12:00 PM49 °FCool.6 mph65%30.10 "HgN/A
11:00 AM50 °FCool.7 mph62%30.09 "HgN/A
10:00 AM49 °FCool.6 mph64%30.09 "HgN/A
9:00 AM45 °FCool.5 mph73%30.09 "HgN/A
8:00 AM42 °FQuite cool.6 mph74%30.07 "HgN/A
7:00 AM41 °FQuite cool.3 mph78%30.06 "HgN/A
6:00 AM38 °FChilly.2 mph92%30.06 "HgN/A
5:00 AM38 °FChilly.1 mph90%30.06 "HgN/A
4:00 AM38 °FChilly.2 mph89%30.06 "HgN/A
3:00 AM40 °FChilly.1 mph84%30.06 "HgN/A
2:00 AM41 °FQuite cool.3 mph82%30.06 "HgN/A
1:00 AM43 °FQuite cool.5 mph77%30.07 "HgN/A
Weather by CustomWeather, © 2016

See weather overviewHow to use our weather pages